Location: Rumah Dana
(3.1167°N, 113.0167°E)
Time: 14:38:26
(UTC+00:00)

Cosmos 2298 Rocket - Pass Details

Date: 03 August 2024
Orbit: 775 x 781 km, 74.0° (Epoch: 09 September)

Event Time Altitude Azimuth Distance (km) Brightness Sun altitude
Rises 21:31:16 0° 352° (N) 3,237 7.4 -14.0°
Reaches altitude 10° 21:33:39 10° 354° (N) 2,312 6.6 -13.5°
Maximum altitude 21:38:53 71° 78° (ENE) 818 4.3 -12.2°
Drops below altitude 10° 21:44:07 10° 161° (SSE) 2,321 6.5 -11.0°
Sets 21:46:31 0° 163° (SSE) 3,251 7.2 -10.4°
